Orbital Elements at Epoch 2459200.5 (2020-Dec-17.0) TDB
Reference: JPL 21 (heliocentric ecliptic J2000)
Element | Value | Uncertainty (1-sigma) | Units |
e | .1646727085857966 | 3.6976e-08 | |
a | 2.77351248543274 | 1.8163e-08 | au |
q | 2.316790672160006 | 1.0201e-07 | au |
i | 13.40903937216487 | 4.6527e-06 | deg |
node | 172.4177613480826 | 1.9615e-05 | deg |
peri | 283.2154770636308 | 2.4986e-05 | deg |
M | 218.7967531868641 | 1.4595e-05 | deg |
tp | 2459862.237577078863 (2022-Oct-09.73757708) | 6.9361e-05 | TDB |
period | 1687.110835798635 4.62 | 1.6573e-05 4.537e-08 | d yr |
n | .2133825427240441 | 2.0961e-09 | deg/d |
Q | 3.230234298705474 | 2.1154e-08 | au |
|
| | Orbit Determination Parameters
Additional Information
|